2025-292C

Last updated on Mon Dec 15 2025 00:02:13 GMT+0000 (Coordinated Universal Time)

1 66995U 25292C 25348.80203608 .00006606 00000+0 47431-3 0 9993 2 66995 97.6533 61.3335 0014041 266.1758 93.7862 15.04564282 705
UTC large
Height (km)
Speed (km/s)
/
Latitude / Longitude
Inclination (degrees)
Orbital Period (minutes)
Azimuth
Elevation
Range (km)
Doppler Factor

Next 0 passes for location: London (51.5072 / 0.1276)

Sorry there are no passes over London.